RH
84 79 86 86 88 85 84 88 92 80 75 76 77 85 81 85 87 88 88 85 81 79 80 82 85 95 94 87 95 92 89 92 54 42 35 30 25 26 28 30 35 28 34 34 33 35 33
86 81 87 90 78 86 86 86 96 84 80 85 82 81 82 82 77 86 87 87 85 84 78 88 97 91 89 90 98 98 91 68 48 43 39 33 32 30 35 35 33 34 37 34 31 31 31
87 87 87 88 84 89 87 86 95 87 84 84 85 84 83 85 82 81 81 87 85 82 80 86 96 80 78 99 99 95 92 78 53 44 44 42 34 31 33 40 38 40 38 30 31 32 32
90 88 87 91 92 90 84 87 92 87 83 82 83 84 87 86 89 96 92 92 86 88 84 80 79 82 98 95 85 71 66 53 49 44 43 39 34 35 35 35 37 36 37 35 33 38 37
87 92 88 90 91 91 85 90 88 87 85 83 83 86 88 85 95 90 70 86 96 96 88 81 73 68 96 94 94 76 58 50 47 43 40 37 36 39 39 45 40 40 50 34 30 36 38
88 92 90 90 92 91 94 83 87 85 87 84 85 84 88 84 89 98 92 82 82 81 78 67 74 72 85 95 97 79 63 49 46 44 43 39 39 43 42 45 46 36 45 36 30 37 39
85 92 93 91 90 93 91 95 87 89 92 89 85 61 86 79 78 73 72 77 77 81 82 90 87 86 88 92 76 62 48 40 38 39 45 46 47 56 50 37 34 32 31 32 29 31 47
86 86 94 93 92 90 93 94 95 93 92 83 89 48 52 67 68 63 74 72 94 91 89 72 77 82 81 68 77 50 48 45 45 53 47 48 46 43 44 44 42 40 42 36 40 42 44
96 87 86 94 94 94 94 95 95 95 94 66 61 61 46 58 65 73 84 93 99 94 68 68 66 72 78 59 57 56 42 43 45 48 44 45 52 47 46 50 48 41 44 44 52 47 38
94 93 89 86 93 94 95 96 96 97 95 74 69 60 46 52 57 69 68 85 93 84 78 85 70 67 57 56 62 51 51 52 50 52 47 47 46 47 48 47 46 48 43 49 54 67 75
95 96 90 90 90 93 95 95 98 100 100 92 59 65 50 57 62 58 77 84 84 76 72 75 74 61 49 56 56 56 53 49 56 58 59 54 58 59 58 52 47 52 50 55 58 72 87
92 95 97 89 92 92 95 96 95 100 100 100 82 50 59 65 68 74 65 79 76 90 90 81 75 78 74 56 58 54 54 48 49 59 54 50 43 50 50 46 50 46 57 57 59 66 90
91 95 94 94 91 95 96 96 95 96 95 85 64 50 66 73 57 74 77 66 95 81 72 74 70 57 49 56 58 55 57 55 63 91 87 65 59 53 49 59 55 61 76 80 94 96 71
87 92 96 98 91 96 100 96 96 89 93 54 47 57 66 80 85 86 72 61 78 69 61 59 61 57 61 63 57 59 61 69 65 61 69 81 80 59 55 58 66 76 78 91 87 75 61
87 87 93 99 93 99 97 98 97 87 77 53 44 66 67 76 62 84 53 93 90 66 56 58 60 51 62 61 64 58 65 71 67 64 68 74 64 51 52 51 59 92 95 76 99 69 87
88 88 92 98 92 99 98 98 97 84 60 51 61 56 62 52 56 76 76 84 68 60 59 56 70 58 61 56 59 61 57 57 65 64 55 64 77 52 64 63 63 71 83 99 100 88 83
86 87 88 98 54 96 96 96 95 59 52 47 61 54 56 47 63 53 92 73 61 56 59 57 53 53 54 58 59 56 54 56 56 69 64 71 70 61 59 70 60 88 91 98 92 79 84
86 87 82 88 44 81 70 61 68 58 50 55 59 90 48 48 73 57 66 57 64 58 57 56 56 48 48 55 53 54 55 52 50 57 64 57 64 78 54 41 45 51 71 86 86 90 66
88 87 84 84 52 62 63 61 65 60 52 64 47 66 58 67 72 65 58 59 58 58 56 55 52 50 48 50 54 50 49 50 52 56 58 54 66 72 54 48 45 58 70 81 71 74 79
87 87 85 85 61 58 61 59 64 60 49 59 41 86 51 45 50 47 56 59 62 58 55 52 49 48 46 44 44 46 41 46 48 52 64 57 56 59 59 41 44 49 46 68 72 88 64
80 86 85 86 74 50 60 58 58 60 53 57 52 69 65 68 55 53 55 57 56 56 55 50 47 50 45 41 42 39 42 42 45 51 54 53 62 57 51 44 40 42 47 42 74 70 73
88 86 86 87 82 46 58 57 55 54 53 63 52 55 57 58 56 54 60 54 56 50 56 44 51 45 46 45 43 44 48 41 36 42 42 46 62 50 64 38 44 48 43 42 41 50 57
95 87 87 87 84 50 60 56 55 50 56 63 85 71 56 70 55 54 44 49 53 57 53 53 57 53 44 52 56 49 46 45 46 50 45 48 52 53 53 40 37 36 31 33 36 39 49
98 90 85 86 85 70 62 62 57 56 55 72 81 63 48 46 49 43 51 54 53 56 57 51 53 54 51 47 43 44 53 52 52 52 53 54 50 55 73 51 54 33 37 38 29 34 36
98 97 87 85 84 85 55 65 61 56 58 58 69 71 58 40 39 47 51 52 50 50 59 53 46 45 47 48 42 34 31 39 42 50 53 53 55 57 65 47 28 19 30 40 46 35 32
97 99 93 88 88 86 73 64 66 61 62 59 59 66 59 48 36 42 49 48 49 43 45 52 48 50 53 46 43 43 29 30 30 41 46 50 52 60 46 53 31 30 37 36 37 37 32
89 98 99 94 90 87 86 60 68 66 66 62 59 62 67 57 44 47 47 47 46 51 48 48 49 60 55 45 45 38 35 38 37 37 49 54 54 61 54 54 35 30 38 36 43 39 34
87 94 98 98 96 89 85 84 59 70 69 65 68 62 71 60 52 54 49 54 60 58 46 50 50 60 59 57 44 38 44 36 47 32 35 36 36 47 41 44 55 33 42 39 34 33 34
86 90 95 99 99 95 90 87 77 68 74 72 75 67 67 68 56 65 56 52 54 55 55 52 54 57 50 66 54 47 51 46 40 36 38 45 30 26 28 30 34 32 31 31 35 39 36
Wind_Speed
24 25 27 31 31 31 29 27 23 22 23 23 24 22 21 18 15 13 10 7 5 4 4 6 6 13 13 8 4 3 5 9 11 10 10 6 9 5 7 7 6 5 3 3 5 6 9
24 25 28 30 31 31 29 26 24 21 22 23 21 20 18 17 13 10 7 5 3 2 1 2 9 14 6 6 4 7 12 18 12 10 7 4 2 1 7 5 4 2 3 5 4 7 7
24 25 28 30 29 30 29 27 24 22 24 23 20 19 16 15 14 11 7 3 1 1 3 3 11 12 14 7 8 11 20 15 11 11 8 7 6 1 6 6 3 2 4 5 7 3 3
24 25 26 29 28 29 30 27 25 23 24 23 19 20 20 18 14 13 7 6 6 4 3 6 9 16 7 13 13 21 19 17 14 12 14 10 9 8 3 7 3 2 2 3 6 4 3
25 25 25 28 29 27 28 28 24 24 24 21 18 19 22 16 20 20 29 21 23 17 17 16 15 9 4 8 8 13 16 16 15 12 12 8 5 4 4 3 3 3 2 5 3 3 1
25 24 26 26 27 27 26 26 24 23 23 22 19 17 19 13 16 17 22 29 26 23 24 21 15 9 6 5 6 7 10 5 9 10 7 3 2 3 3 4 1 5 2 4 6 5 5
24 25 25 26 25 26 25 25 24 22 21 20 18 16 18 13 9 7 6 6 3 7 26 13 15 14 8 10 9 8 6 8 6 3 2 2 5 4 4 1 2 1 4 6 6 4 7
24 24 24 25 25 23 24 24 24 23 21 20 19 13 15 12 7 8 8 5 5 2 11 18 15 10 6 7 4 4 2 2 3 5 3 4 4 4 3 2 0 1 4 5 2 1 8
23 22 23 24 24 24 24 23 23 22 21 21 17 15 10 9 7 17 17 7 3 6 5 11 11 7 4 3 5 7 7 2 6 5 2 1 7 6 3 3 2 4 5 6 5 13 10
24 23 21 22 23 24 24 24 22 21 20 18 20 15 5 6 6 3 5 5 6 6 4 10 8 7 6 3 4 5 7 5 2 4 2 4 4 4 3 2 3 5 4 4 7 10 4
25 23 21 21 22 22 23 25 24 21 19 18 14 17 7 3 3 2 1 4 8 3 4 9 5 7 5 6 2 3 4 4 5 3 3 3 4 5 4 1 4 4 3 7 7 7 8
26 24 22 20 21 21 21 24 26 24 21 19 12 10 3 4 2 2 4 9 3 0 6 5 4 3 3 5 3 1 2 1 1 1 2 1 1 4 4 2 5 7 7 8 4 3 4
23 24 23 21 20 21 21 22 25 26 25 22 7 8 6 3 1 4 5 2 2 6 2 3 3 3 8 5 4 3 2 3 2 1 3 4 5 3 4 2 2 2 4 1 3 4 3
21 25 23 22 20 22 23 22 22 24 27 14 8 9 7 6 7 8 4 1 11 5 6 1 2 1 4 5 3 4 3 4 4 2 2 1 3 6 8 3 2 4 2 3 4 3 6
19 23 24 22 22 21 23 23 21 22 24 9 4 3 6 10 8 7 1 7 3 3 3 2 2 2 3 3 4 2 2 1 1 1 3 3 2 2 3 1 2 4 3 2 3 5 4
19 19 23 23 23 22 23 22 20 20 20 8 3 1 6 11 11 5 5 6 4 2 1 2 4 4 4 4 2 3 2 3 2 0 2 4 3 2 4 2 5 2 3 3 3 3 4
19 19 22 23 25 24 24 21 19 21 14 6 3 1 8 12 5 4 4 5 4 2 2 1 4 4 5 3 3 4 5 4 1 5 2 3 2 2 3 7 4 4 3 2 2 4 3
17 19 21 24 25 24 24 21 21 20 14 7 4 2 10 10 3 2 4 3 2 1 2 1 1 2 4 4 3 2 3 3 1 2 3 1 3 4 6 2 2 2 1 2 4 3 6
15 18 19 22 24 24 22 23 22 19 15 2 2 2 5 4 3 4 3 3 2 1 1 2 2 2 2 0 1 2 3 2 2 1 4 2 2 4 3 4 6 6 8 5 8 2 8
14 16 18 20 23 23 22 22 23 18 12 3 1 2 2 2 2 2 1 2 0 1 1 3 2 4 4 3 2 1 2 3 2 5 1 2 6 8 8 9 4 7 7 10 9 4 7
12 14 16 18 21 21 21 21 23 19 9 2 3 2 2 1 2 3 2 1 2 1 3 2 2 5 5 3 3 3 3 4 6 6 5 4 5 7 14 17 16 16 15 12 14 17 7
13 12 15 16 18 19 19 19 21 21 7 4 2 1 1 1 0 2 2 3 2 2 2 1 4 4 5 6 8 10 7 5 4 5 4 3 4 8 7 6 8 14 17 17 17 17 18
12 12 14 14 16 17 16 17 18 21 8 4 2 1 3 1 1 3 1 1 3 1 4 1 3 5 6 3 8 11 11 13 12 6 5 4 5 6 5 4 12 13 19 20 15 12 15
12 11 12 13 14 15 14 14 14 16 15 4 1 0 3 2 5 3 1 3 5 4 3 3 3 3 1 8 13 10 9 11 11 11 9 7 7 4 6 10 4 3 3 7 16 12 13
12 11 10 12 13 13 12 12 12 12 12 8 3 1 0 3 3 5 7 5 5 6 6 8 7 4 5 6 4 6 4 4 4 7 9 9 5 4 4 7 17 12 2 3 3 9 7
13 11 10 10 12 11 11 10 10 10 10 6 6 3 3 2 1 3 4 6 6 7 5 5 2 3 3 3 3 3 4 2 2 4 2 6 8 4 3 4 5 3 3 1 1 4 6
15 12 10 9 11 11 10 9 9 8 7 5 2 4 4 3 3 4 4 4 2 2 4 1 3 3 3 3 5 4 5 1 4 3 5 4 6 11 10 8 9 5 5 2 3 3 5
16 13 10 10 10 11 11 10 9 8 6 5 3 1 1 3 5 8 6 6 3 3 4 3 2 3 3 4 3 3 3 2 4 6 3 7 5 5 5 5 9 9 5 5 2 2 4
17 15 12 11 11 11 12 12 11 9 7 4 3 3 4 5 4 6 12 13 10 2 3 3 4 2 2 3 2 2 4 3 5 5 4 5 9 3 8 5 4 7 7 2 3 8 12
Wind_Direction
6 4 2 1 6 4 2 1 1 6 7 9 7 17 16 25 29 29 34 44 59 70 110 137 166 171 137 81 41 315 193 157 147 147 155 172 174 156 156 140 159 226 176 237 268 282 284
8 7 4 6 12 10 7 3 6 11 11 10 9 12 8 3 7 6 353 3 20 32 125 120 134 143 70 82 351 57 160 129 144 135 130 126 136 57 98 125 228 84 218 255 266 273 278
10 9 6 9 15 14 11 8 10 13 19 14 10 10 5 0 350 347 323 318 283 219 198 187 144 90 57 44 50 116 128 118 107 127 106 88 110 272 127 132 112 107 281 236 239 260 259
10 10 8 10 14 15 13 14 16 17 18 17 19 16 10 2 4 22 1 114 121 137 154 141 132 131 72 84 77 80 102 99 90 102 101 98 104 90 73 106 131 224 253 247 127 165 103
11 11 9 11 13 15 18 20 23 20 17 19 22 13 12 25 56 72 83 89 72 93 106 96 76 92 41 66 41 46 75 105 97 98 98 97 79 80 139 174 176 206 255 246 183 157 298
11 11 9 12 12 14 18 22 21 20 19 15 15 15 15 60 84 82 77 81 76 84 86 68 52 69 360 52 20 57 65 74 101 117 110 101 112 136 167 192 243 149 209 235 251 146 242
14 12 10 11 11 12 17 19 22 19 17 15 10 22 22 55 70 59 347 308 348 49 55 73 78 77 67 74 61 95 91 105 125 178 122 166 209 157 164 86 26 66 272 272 277 331 303
14 14 11 10 10 8 13 15 20 20 18 15 12 19 37 50 39 344 44 56 34 6 61 49 78 77 99 106 85 77 331 171 196 101 149 189 117 83 114 117 348 267 287 292 348 122 300
13 16 11 9 8 7 6 8 13 15 15 17 13 11 48 67 64 57 77 65 359 344 79 49 45 43 340 340 77 53 19 36 71 108 50 65 89 130 149 160 236 241 282 324 318 326 277
11 13 12 7 7 6 4 5 5 10 8 13 14 11 24 91 81 69 57 10 348 335 84 15 19 40 3 354 68 13 17 358 78 77 66 67 129 168 202 247 260 287 44 321 326 359 327
9 10 9 7 3 3 3 1 1 1 6 8 9 13 39 73 94 84 16 340 325 261 60 347 3 317 335 51 103 64 359 344 68 64 258 94 162 187 226 287 208 20 322 306 307 302 307
5 7 6 6 1 2 3 359 356 355 355 354 355 14 9 23 99 176 309 320 289 334 57 6 345 360 6 72 77 123 347 244 298 286 193 138 171 264 277 310 231 323 321 294 255 251 255
1 4 5 3 2 359 2 0 354 351 350 349 19 30 27 353 32 309 315 273 32 51 177 9 16 356 69 67 89 37 33 90 64 63 39 300 200 198 228 223 132 237 285 180 216 202 273
1 2 3 2 360 358 358 357 355 351 349 3 48 48 42 31 320 311 258 44 58 41 61 56 328 295 48 345 70 37 31 50 67 75 77 38 144 187 166 284 13 184 323 328 291 295 316
360 358 1 1 358 359 360 356 355 353 346 358 54 27 38 349 347 314 251 59 98 15 14 341 247 7 67 49 327 312 34 23 14 271 25 356 100 124 210 289 293 154 211 354 277 243 264
352 357 357 359 359 357 2 357 355 355 358 8 28 23 29 356 345 292 60 92 108 144 331 312 4 25 34 35 342 12 25 81 71 50 294 20 290 141 116 203 231 278 74 223 190 274 273
348 355 356 0 4 4 2 5 3 3 10 14 339 356 348 351 359 40 56 77 109 148 231 284 28 23 44 35 13 10 26 109 113 156 235 300 282 137 185 206 213 172 190 228 298 263 291
347 347 357 358 6 7 8 12 9 5 7 36 328 24 342 359 37 53 51 30 348 122 194 187 278 352 17 4 344 357 2 28 76 199 291 75 322 272 243 90 226 193 269 231 258 178 245
346 346 352 358 2 8 10 7 7 8 11 21 20 339 341 350 63 67 106 90 330 219 240 209 205 244 201 269 254 355 344 56 148 240 346 96 232 294 196 168 205 237 181 200 258 287 254
341 343 350 357 360 4 8 9 6 6 18 66 310 356 22 69 71 84 108 120 164 190 260 285 286 244 221 220 202 245 268 182 226 218 337 218 256 257 281 312 303 268 218 195 212 218 263
344 339 346 354 358 2 7 9 8 4 12 77 7 82 36 340 67 110 340 315 191 273 228 282 246 290 302 275 242 249 244 236 196 187 199 235 263 252 262 270 270 262 256 236 219 237 267
346 336 340 346 357 0 8 9 13 12 25 50 358 233 175 89 231 258 176 141 302 356 284 95 299 342 312 312 339 334 331 287 302 194 255 216 280 296 281 227 250 247 242 241 242 241 249
339 341 334 339 351 357 8 13 14 21 28 67 72 349 293 167 221 257 269 202 144 186 158 281 317 307 277 331 320 300 290 280 281 289 301 286 311 325 270 327 305 269 238 231 229 224 227
330 338 334 332 340 352 359 12 18 23 31 57 80 345 284 161 230 234 236 264 243 208 244 268 250 264 85 291 283 251 250 255 251 246 238 284 296 289 292 309 257 31 49 300 224 229 232
316 323 329 328 328 340 350 0 11 24 26 38 32 310 2 282 260 227 226 230 245 240 253 256 243 264 324 299 299 310 212 226 200 220 225 219 270 277 278 304 285 297 23 332 240 287 261
304 307 315 314 312 322 336 341 355 8 27 26 18 18 291 291 215 285 224 227 242 238 240 234 253 293 279 272 255 254 260 341 245 179 188 190 228 250 300 283 282 67 94 70 306 255 22
294 294 299 307 299 303 313 322 324 346 2 27 360 20 302 279 185 182 232 252 203 243 268 235 196 208 235 237 247 250 251 50 257 241 173 194 216 229 242 258 273 93 136 179 236 74 21
282 283 288 294 295 287 293 303 303 306 331 350 282 327 352 288 260 206 197 197 202 239 255 84 242 187 205 235 254 245 265 228 280 251 218 208 212 203 212 235 259 150 145 224 70 176 344
271 278 279 283 285 282 275 283 293 288 292 317 272 274 276 243 292 239 242 240 237 270 299 194 332 301 302 254 264 302 238 224 270 272 191 245 219 275 214 220 97 186 251 236 286 295 308